Weather History for Grand Island, NE

Change the Weather History Date:

Sunday, February 12, 2012

  Actual Average Record
Temperature  
Mean Temperature 11 °F 28 °F  
Max Temperature 26 °F 39 °F 67 °F (1938)
Min Temperature -4 °F 18 °F -34 °F (1899)
Degree Days  
Heating Degree Days 54 37  
Month to date heating degree days 484 457  
Since 1 July heating degree days 3823 4213  
Cooling Degree Days 0 0  
Month to date cooling degree days 0 0  
Year to date cooling degree days 0 0  
Moisture  
Dew Point 5 °F    
Average Humidity 65    
Maximum Humidity 76    
Minimum Humidity 53    
Precipitation  
Precipitation 0.01 in 0.02 in 0.48 in (1950)
Month to date precipitation 0.93 0.25  
Year to date precipitation 1.09 0.78  
Snow  
Snow T in 0.20 in 6.00 in (1978)
Month to date snowfall 10.1 2.9  
Since 1 July snowfall 20.0 18.7  
Snow Depth 5.00 in    
Sea Level Pressure  
Sea Level Pressure 30.33 in    
Wind  
Wind Speed 13 mph (South)    
Max Wind Speed 24 mph    
Max Gust Speed 28 mph    
Visibility 9 miles    
Events Snow    
T = Trace of Precipitation, MM = Missing Value Source: NWS Daily Summary

Daily Weather History Graph

Daily Weather History Graph

Search for Another Location

Airport:

Trip Planner

Search our weather history database for the weather conditions in past years. The results will help you decide how hot, cold, wet, or windy it might be!

Date:

Astronomy

Feb. 12, 2012 Rise Set
Actual Time 7:31 AM CST 6:03 PM CST
Civil Twilight 7:03 AM CST 6:31 PM CST
Nautical Twilight 6:31 AM CST 7:04 PM CST
Astronomical Twilight 5:59 AM CST 7:36 PM CST
Moon No Moon Rise 9:48 AM CST (2/12)
Length of Visible Light 11h 28m
Length of Day
10h 31m
Waning Gibbous, 72% of the Moon is Illuminated
Feb 12
Waning Gibbous
Feb 14
Last Quarter
Feb 21
New
Feb 29
First Quarter
Mar 8
Full

Hourly Weather History & Observations

Time (CST) Temp. Windchill Dew Point Humidity Pressure Visibility Wind Dir Wind Speed Gust Speed Precip Events Conditions
12:53 AM -0.9 °F -11.0 °F -9.0 °F 69% 30.69 in 10.0 mi SW 4.6 mph - N/A   Clear
1:53 AM -2.9 °F -15.0 °F -9.0 °F 75% 30.68 in 10.0 mi SW 5.8 mph - N/A   Clear
2:53 AM -0.9 °F -11.0 °F -7.1 °F 75% 30.65 in 10.0 mi SSW 4.6 mph - N/A   Clear
3:53 AM -0.9 °F -11.0 °F -7.1 °F 75% 30.61 in 10.0 mi SSW 4.6 mph - N/A   Clear
4:53 AM -0.9 °F -15.3 °F -7.1 °F 75% 30.59 in 10.0 mi South 8.1 mph - N/A   Clear
5:53 AM 1.9 °F -10.6 °F -5.1 °F 72% 30.56 in 10.0 mi South 6.9 mph - N/A   Clear
6:53 AM 1.9 °F -11.8 °F -5.1 °F 72% 30.55 in 10.0 mi South 8.1 mph - N/A   Clear
6:58 AM 3.2 °F -10.3 °F -5.8 °F 66% 30.41 in 10.0 mi South 8.1 mph - N/A   Clear
7:53 AM 5.0 °F -9.1 °F -2.9 °F 70% 30.52 in 10.0 mi South 9.2 mph - N/A   Clear
8:53 AM 10.0 °F -3.7 °F -0.0 °F 64% 30.51 in 10.0 mi South 10.4 mph - N/A   Clear
9:53 AM 15.1 °F 0.5 °F 1.9 °F 56% 30.49 in 10.0 mi South 13.8 mph - N/A   Mostly Cloudy
10:53 AM 18.0 °F 4.8 °F 5.0 °F 57% 30.45 in 10.0 mi South 12.7 mph - N/A   Overcast
11:53 AM 19.9 °F 4.3 °F 8.1 °F 60% 30.40 in 10.0 mi South 19.6 mph - N/A   Overcast
12:53 PM 21.9 °F 6.5 °F 10.0 °F 60% 30.36 in 10.0 mi South 20.7 mph 27.6 mph N/A   Overcast
1:53 PM 23.0 °F 8.7 °F 12.0 °F 63% 30.31 in 10.0 mi South 18.4 mph - N/A   Partly Cloudy
2:53 PM 25.0 °F 11.3 °F 12.9 °F 60% 30.26 in 10.0 mi South 18.4 mph - N/A   Overcast
3:53 PM 25.0 °F 10.6 °F 12.0 °F 58% 30.23 in 10.0 mi SSE 20.7 mph 26.5 mph N/A   Partly Cloudy
4:53 PM 24.1 °F 11.0 °F 10.9 °F 57% 30.19 in 10.0 mi South 16.1 mph - N/A   Clear
5:53 PM 24.1 °F 12.0 °F 10.9 °F 57% 30.16 in 10.0 mi South 13.8 mph - N/A   Overcast
6:53 PM 24.1 °F 12.0 °F 10.9 °F 57% 30.15 in 10.0 mi SSE 13.8 mph - N/A   Overcast
7:53 PM 23.0 °F 9.2 °F 10.9 °F 60% 30.12 in 10.0 mi South 17.3 mph - N/A   Scattered Clouds
8:53 PM 21.9 °F 8.7 °F 10.9 °F 63% 30.09 in 10.0 mi South 15.0 mph - N/A   Clear
9:53 PM 23.0 °F 10.1 °F 12.9 °F 65% 30.06 in 10.0 mi South 15.0 mph - N/A   Overcast
10:53 PM 21.9 °F 8.7 °F 17.1 °F 82% 30.03 in 5.0 mi South 15.0 mph - 0.00 in Snow Light Snow
11:18 PM 21.2 °F 8.3 °F 17.6 °F 86% 29.94 in 1.8 mi South 13.8 mph - 0.00 in Snow Light Snow
11:47 PM 21.2 °F 8.9 °F 17.6 °F 86% 29.93 in 3.0 mi South 12.7 mph - 0.01 in Snow Light Snow
11:53 PM 21.9 °F 9.8 °F 17.1 °F 82% 30.01 in 5.0 mi South 12.7 mph - 0.01 in Snow Light Snow